Regional Weather Roundup
Issued by NWS Sterling, VA

Home | Current Version | Previous Version | Text Only | Print | Product List | Glossary Off
Versions: 1 2 3 4 5 6 7 8 9 10 11 12 13 14 15 16 17 18 19 20 21 22 23 24 25 26 27 28 29 30 31 32 33 34 35 36 37 38 39 40 41 42 43 44 45 46 47 48 49 50

613
ASUS41 KLWX 111711
RWRLWX

REGIONAL WEATHER ROUNDUP
NATIONAL WEATHER SERVICE BALTIMORE MD/WASHINGTON DC
1200 PM EST MON DEC 11 2017

Note: "FAIR" indicates few or no clouds below 12,000 feet
with no significant weather and/or obstructions to visibility.
 TC=TEMPERATURE CELSIUS

 * =Non NWS site. Station does not report precipitation (e.g. rain,
    snow, etc.), thunder, or fog.

DCZ001-MDZ009-015-VAZ040>042-051-053>054-111800-
WASHINGTON METRO

CITY           SKY/WX    TMP DP  RH WIND       PRES   REMARKS
WASHINGTON NAT SUNNY     46  27  47 S9        30.07F
DULLES         MOSUNNY   44  25  47 SW8       30.05F
ANDREWS AFB    SUNNY     45  23  42 W7        30.05F
FT BELVOIR     SUNNY     47  23  38 W3        30.06F
QUANTICO       MOSUNNY   45  32  60 S8        30.08F
COLLEGE PARK*  SUNNY     45  23  42 W7        30.06F
LEESBURG*      SUNNY     45  28  53 W7        30.05F
MANASSAS*      SUNNY     45  27  49 CALM      30.06F
GAITHERSBURG*  SUNNY     43  25  49 W9        30.05F

$$

MDZ006>007-011-014-111800-
BALTIMORE METRO

CITY           SKY/WX    TMP DP  RH WIND       PRES   REMARKS
BWI AIRPORT    MOSUNNY   45  24  43 SW9       30.05F
MD SCIENCE CTR   N/A     46  24  42 MISG      30.08F
MARTIN STATE   MOSUNNY   45  27  49 W10       30.08F
ANNAPOLIS      SUNNY     45  25  45 NW6       30.07F
FORT MEADE*    SUNNY     45  25  45 W10       30.08F

$$

MDZ012-015-019>023-111800-
MARYLAND EASTERN SHORE

CITY           SKY/WX    TMP DP  RH WIND       PRES   REMARKS
OCEAN CITY     SUNNY     44  29  55 VRB6      30.09F
SALISBURY      SUNNY     42  27  55 CALM      30.08F
BAY BRIDGE AP* SUNNY     45  28  53 SW6       30.08F
CAMBRIDGE*     SUNNY     43  27  52 SW5       30.09F
EASTON*        SUNNY     46  27  46 W8        30.11F

$$

MDZ017>025-111800-
SOUTHERN MARYLAND

CITY           SKY/WX    TMP DP  RH WIND       PRES   REMARKS
PATUXENT RIVER SUNNY     45  26  47 W7        30.08F
ST INIGOES     SUNNY     44  29  55 CALM      30.08F
LEONARDTOWN*   SUNNY     41  28  60 CALM      30.09F

$$

MDZ003>005-111800-
NORTH CENTRAL MARYLAND

CITY           SKY/WX    TMP DP  RH WIND       PRES   REMARKS
FREDERICK*     MOSUNNY   45  19  36 SW8       30.08F
HAGERSTOWN APT SUNNY     42  21  43 W9        30.02F
WESTMINSTER*   PTSUNNY   39  25  56 CALM      30.03F

$$

MDZ501>502-111800-
WESTERN MARYLAND

CITY           SKY/WX    TMP DP  RH WIND       PRES   REMARKS
OAKLAND*       SUNNY     30  19  64 SW8       29.89F WCI  23
CUMBERLAND*    SUNNY     43  21  42 S3        30.05F

$$

VAZ025>031-111800-
SHENANDOAH VALLEY

CITY           SKY/WX    TMP DP  RH WIND       PRES   REMARKS
WINCHESTER*    SUNNY     41  23  48 S5        30.03F
FRONT ROYAL*   FAIR      43  23  45 MISG      30.02F
LURAY*         SUNNY     45  27  49 SW10      30.02F
NEW MARKET*    SUNNY     43  22  42 SW9G16    30.02F
STAUNTON*      SUNNY     42  24  48 SW12      30.04F
WAYNESBORO*    SUNNY     42  24  49 SW9       30.02F

$$

WVZ021-048>050-054>055-111800-
EASTERN WEST VIRGINIA PANHANDLE

CITY           SKY/WX    TMP DP  RH WIND       PRES   REMARKS
MARTINSBURG    SUNNY     43  20  39 W5        30.02F
PETERSBURG*    SUNNY     43  19  38 CALM      30.00F

$$

VAZ036>039-050-111800-
CENTRAL FOOTHILLS

CITY           SKY/WX    TMP DP  RH WIND       PRES   REMARKS
CHARLOTTESVILL SUNNY     47  23  38 SW7       30.03F
CULPEPER*      FAIR      47  24  39 SW7       30.06F
ORANGE*        SUNNY     46  27  46 W9        30.06F
GORDONSVILLE*  SUNNY     46  25  42 SW6       30.04F
WARRENTON*     SUNNY     47  23  37 SW5       30.05F

$$

VAZ055>057-111800-
NORTH AND CENTRAL PIEDMONT

CITY           SKY/WX    TMP DP  RH WIND       PRES   REMARKS
FREDERICKSBRG* SUNNY     48  26  42 SW8       30.05F
STAFFORD*      SUNNY     47  25  41 S5        30.10F

$$

NCZ024-NYZ072-PAZ021-071-VAZ022-071-111800-
OTHER REGIONAL OBSERVATIONS

CITY           SKY/WX    TMP DP  RH WIND       PRES   REMARKS
NEW YORK CITY  SUNNY     39  21  48 VRB5      30.03F
PHILADELPHIA   PTSUNNY   41  21  44 W10       30.05F
PITTSBURGH     CLOUDY    34  20  56 S6G17     29.98F
ROANOKE        SUNNY     46  25  43 SW6       30.04F
RICHMOND       MOSUNNY   48  27  44 W6        30.06F
RALEIGH        MOSUNNY   49  27  42 NW6       30.10F

$$

ANZ530>537-111800-
MARINE OBSERVATIONS

STATION/POSITION TIME  TEMP    WIND        PRES
                       AIR SEA DIR/SP/G
                 (UTC) (F)     (DEG/KT/KT) (MB)
THOMAS PT LIGHT  1700   41 47  170/  9/ 10   N/A
BALT KEY BRIDGE  1648   42     270/ 10/ 11 1017.9F
COVE POINT       1648   42      40/  3/  3 1019.4F
LEWISETTA        1648   41 44   50/  2/  3 1018.9F
SOLOMONS ISLAND  1648   44 49  270/  4/  5 1018.3F
PINEY POINT      1648          360/  7/  8   N/A

$$





USA.gov is the U.S. government's official web portal to all federal, state and local government web resources and services.